Tracking 25710 objects as of 6-Jul-2022
HD Live streaming from Space Station
objects crossing your sky now

ATLAS 5 CENTAUR DEB

Track ATLAS 5 CENTAUR DEB now!


NORAD ID: 43990
Int'l Code: 2014-055AV
Perigee: 8,188.8 km
Apogee: 34,403.4 km
Inclination: 21.1 °
Period: 763.3 minutes
Semi major axis: 27667 km
RCS: Unknown
Launch date: September 17, 2014
Source: United States (US)
Launch site: AIR FORCE EASTERN TEST RANGE (AFETR)

Note: This is SATELLITE DEBRIS
aabbcc
Your satellite tracking list
Your tracking list is empty




NASA's NSSDC Master Catalog

Two Line Element Set (TLE):
1 43990U 14055AV  22187.26254992 -.00000052  00000-0  00000-0 0  9997
2 43990  21.1285 277.6127 4737497 290.4011  26.0405  1.88650501 25914
Source of the keplerian elements: AFSPC